Location: Mornago
(45.7500°N, 8.7500°E)
Time: 23:17:25
(UTC+01:00)

ISS - Visible Passes

Search period start: 23 March 2017 00:00
Search period end: 02 April 2017 01:00
Orbit: 399 x 409 km, 51.6° (Epoch: 24 March)

Date Brightness Start Highest point End Pass type
(mag) Time Alt. Az. Time Alt. Az. Time Alt. Az.
23 Mar -2.5 04:30:04 30° SSE 04:30:04 30° SSE 04:31:59 10° SE visible
24 Mar -1.6 05:13:26 12° SSW 05:13:26 12° SSW 05:14:13 10° SSW visible
26 Mar -1.5 21:07:01 10° S 21:07:24 12° S 21:07:24 12° S visible
27 Mar -2.0 21:49:43 10° SW 21:51:06 23° SW 21:51:06 23° SW visible
28 Mar -3.2 20:57:37 10° SSW 21:00:37 35° SE 21:01:47 26° E visible
28 Mar -0.9 22:33:52 10° W 22:34:29 14° W 22:34:29 14° W visible
29 Mar -3.6 21:41:19 10° WSW 21:44:33 68° NNW 21:44:53 61° NNE visible
30 Mar -3.9 20:48:53 10° SW 20:52:07 74° SSE 20:55:05 12° ENE visible
30 Mar -1.6 22:25:48 10° WNW 22:27:45 26° NW 22:27:45 26° NW visible
31 Mar -2.7 21:33:07 10° W 21:36:14 41° NNW 21:37:45 24° NE visible
31 Mar -0.3 23:10:20 10° WNW 23:10:26 11° WNW 23:10:26 11° WNW visible
01 Apr -3.3 20:40:29 10° WSW 20:43:42 59° NNW 20:46:57 10° ENE visible
01 Apr -1.9 22:17:42 10° WNW 22:20:17 27° NNW 22:20:17 27° NNW visible
